JBU1795 KMCO-MROC

Flight info

Callsign JBU1795
Flight time N/A
Altitude 37000
Route FSHUN4 PLUMR DCT FEMID/N0438F390 Q79 VAULT/N0437F380 Q79 MCLAW Y442 FUNDI/N0441F390 UM335 ALVEK/N0444F380 DCT SELEK/N0443F390 UZ403 PIRAS BARRA3P
Aircraft A20N/M-SDE2E3FGHIRWXY/LB1

Departure

Time 2026-04-26 16:43
Airport Orlando International Airport (KMCO)

Arrival

Time N/A
Airport Juan Santamaría International Airport (MROC)
Time Latitude Longitude Altitude Speed Heading
2026-04-26 16:26 28.43541 -81.31543 90 ft 0 kts 87°
2026-04-26 16:32 28.43541 -81.31544 102 ft 0 kts 87°
2026-04-26 16:33 28.43541 -81.31542 102 ft 0 kts 87°
2026-04-26 16:33 28.43541 -81.31553 102 ft 4 kts 87°
2026-04-26 16:33 28.43539 -81.31582 102 ft 4 kts 83°
2026-04-26 16:33 28.43530 -81.31615 100 ft 6 kts 54°
2026-04-26 16:34 28.43520 -81.31628 101 ft 0 kts 36°
2026-04-26 16:38 28.43529 -81.31626 102 ft 3 kts 17°
2026-04-26 16:38 28.43564 -81.31623 102 ft 7 kts
2026-04-26 16:38 28.43615 -81.31636 100 ft 9 kts 358°
2026-04-26 16:39 28.43687 -81.31622 102 ft 12 kts
2026-04-26 16:39 28.43767 -81.31638 104 ft 12 kts 330°
2026-04-26 16:39 28.43842 -81.31685 105 ft 13 kts 348°
2026-04-26 16:39 28.43918 -81.31732 103 ft 14 kts 282°
2026-04-26 16:40 28.43933 -81.31837 107 ft 12 kts 297°
2026-04-26 16:40 28.43977 -81.31870 109 ft 12 kts 338°
2026-04-26 16:40 28.44063 -81.31897 108 ft 14 kts 351°
2026-04-26 16:40 28.44175 -81.31901 107 ft 18 kts 358°
2026-04-26 16:41 28.44306 -81.31902 107 ft 16 kts 359°
2026-04-26 16:41 28.44428 -81.31904 106 ft 19 kts 359°
2026-04-26 16:41 28.44576 -81.31905 102 ft 24 kts
2026-04-26 16:41 28.44714 -81.31961 101 ft 17 kts 287°
2026-04-26 16:42 28.44711 -81.32066 102 ft 13 kts 275°
2026-04-26 16:42 28.44698 -81.32165 103 ft 12 kts 259°
2026-04-26 16:42 28.44653 -81.32226 103 ft 10 kts 180°
2026-04-26 16:42 28.44431 -81.32225 105 ft 64 kts 179°
2026-04-26 16:43 28.43782 -81.32217 110 ft 120 kts 179°
2026-04-26 16:43 28.42798 -81.32209 107 ft 161 kts 180°
2026-04-26 16:43 28.41606 -81.32190 383 ft 175 kts 185°
2026-04-26 16:43 28.40374 -81.32462 740 ft 189 kts 184°
2026-04-26 16:44 28.39058 -81.32376 1329 ft 190 kts 176°
2026-04-26 16:44 28.37749 -81.32210 1942 ft 189 kts 175°
2026-04-26 16:44 28.36956 -81.32231 2149 ft 198 kts 191°
2026-04-26 16:44 28.35588 -81.32690 2467 ft 215 kts 201°
2026-04-26 16:45 28.34642 -81.33117 2680 ft 230 kts 203°
2026-04-26 16:45 28.33127 -81.33824 3348 ft 239 kts 202°
2026-04-26 16:45 28.31517 -81.34543 3904 ft 258 kts 201°
2026-04-26 16:45 28.29808 -81.35263 4819 ft 263 kts 201°
2026-04-26 16:46 28.28069 -81.35971 5766 ft 268 kts 201°
2026-04-26 16:46 28.26294 -81.36681 6703 ft 273 kts 201°
2026-04-26 16:46 28.24486 -81.37403 7643 ft 277 kts 201°
2026-04-26 16:46 28.22644 -81.38137 8509 ft 283 kts 201°
2026-04-26 16:47 28.20767 -81.38884 9384 ft 288 kts 201°
2026-04-26 16:47 28.18862 -81.39644 10225 ft 294 kts 201°
2026-04-26 16:47 28.16862 -81.40444 10602 ft 317 kts 201°
2026-04-26 16:47 28.14701 -81.41309 10928 ft 340 kts 201°
2026-04-26 16:48 28.12431 -81.42216 11540 ft 349 kts 201°
2026-04-26 16:48 28.10123 -81.43135 12329 ft 354 kts 201°
2026-04-26 16:48 28.07810 -81.44056 13087 ft 359 kts 202°
2026-04-26 16:48 28.05430 -81.45003 13816 ft 366 kts 202°
2026-04-26 16:49 28.03018 -81.45963 14536 ft 369 kts 202°
2026-04-26 16:49 28.00588 -81.46931 15286 ft 372 kts 202°
2026-04-26 16:49 27.98133 -81.47908 15992 ft 376 kts 202°
2026-04-26 16:49 27.95654 -81.48896 16699 ft 379 kts 202°
2026-04-26 16:50 27.93169 -81.49955 17362 ft 382 kts 207°
2026-04-26 16:50 27.90823 -81.51355 18046 ft 382 kts 215°
2026-04-26 16:50 27.88652 -81.53098 18640 ft 384 kts 221°
2026-04-26 16:50 27.86518 -81.54947 19203 ft 388 kts 220°
2026-04-26 16:51 27.84358 -81.56806 19781 ft 392 kts 220°
2026-04-26 16:51 27.82202 -81.58654 20362 ft 395 kts 220°
2026-04-26 16:51 27.79996 -81.60541 20937 ft 399 kts 220°
2026-04-26 16:51 27.77769 -81.62444 21488 ft 403 kts 220°
2026-04-26 16:52 27.75523 -81.64362 22042 ft 407 kts 220°
2026-04-26 16:52 27.73993 -81.65668 22409 ft 410 kts 220°
2026-04-26 16:52 27.70768 -81.67957 23111 ft 420 kts 205°
2026-04-26 16:52 27.67932 -81.68864 23625 ft 429 kts 190°
2026-04-26 16:53 27.64923 -81.68949 24070 ft 437 kts 176°
2026-04-26 16:53 27.61893 -81.68516 24525 ft 441 kts 173°
2026-04-26 16:53 27.58890 -81.67978 24964 ft 444 kts 172°
2026-04-26 16:53 27.55833 -81.67433 25403 ft 447 kts 173°
2026-04-26 16:54 27.52745 -81.66915 25820 ft 450 kts 173°
2026-04-26 16:54 27.49624 -81.66419 26246 ft 453 kts 174°
2026-04-26 16:54 27.46482 -81.65936 26663 ft 456 kts 174°
2026-04-26 16:54 27.43323 -81.65457 27069 ft 459 kts 174°
2026-04-26 16:55 27.40146 -81.64977 27468 ft 462 kts 174°
2026-04-26 16:55 27.36947 -81.64494 27839 ft 465 kts 174°
2026-04-26 16:55 27.33723 -81.64008 28214 ft 468 kts 174°
2026-04-26 16:55 27.30482 -81.63519 28569 ft 471 kts 174°
2026-04-26 16:56 27.23992 -81.62540 29254 ft 476 kts 174°
2026-04-26 16:56 27.20703 -81.62044 29568 ft 479 kts 174°
2026-04-26 16:56 27.17392 -81.61546 29893 ft 482 kts 174°
2026-04-26 16:57 27.14060 -81.61044 30193 ft 484 kts 174°
2026-04-26 16:57 27.10713 -81.60540 30488 ft 486 kts 174°
2026-04-26 16:57 27.03975 -81.59527 31073 ft 490 kts 174°
2026-04-26 16:58 27.00589 -81.59018 31423 ft 491 kts 174°
2026-04-26 16:58 26.98348 -81.58682 31674 ft 491 kts 174°
2026-04-26 16:58 26.90448 -81.57495 32525 ft 490 kts 174°
2026-04-26 16:59 26.87070 -81.56989 32865 ft 490 kts 174°
2026-04-26 16:59 26.80303 -81.55975 33562 ft 489 kts 174°
2026-04-26 17:00 26.72221 -81.54766 34312 ft 488 kts 175°
2026-04-26 17:00 26.51447 -81.51666 36120 ft 480 kts 175°
2026-04-26 17:00 26.48141 -81.51174 36369 ft 479 kts 175°
2026-04-26 17:01 26.44831 -81.50682 36622 ft 478 kts 175°
2026-04-26 17:01 26.41539 -81.50192 36858 ft 477 kts 176°
2026-04-26 17:01 26.38244 -81.49703 36969 ft 476 kts 176°
2026-04-26 17:01 26.34963 -81.49215 36978 ft 475 kts 176°
2026-04-26 17:02 26.28402 -81.48242 37065 ft 477 kts 176°
2026-04-26 17:02 26.24230 -81.47623 37335 ft 476 kts 176°
2026-04-26 17:02 26.04648 -81.43842 38652 ft 479 kts 166°
2026-04-26 17:03 26.01207 -81.42571 38795 ft 478 kts 166°
2026-04-26 17:03 25.98047 -81.41415 38891 ft 478 kts 166°
2026-04-26 17:03 25.91734 -81.39216 38984 ft 478 kts 167°
2026-04-26 17:04 25.85364 -81.37070 38982 ft 478 kts 168°
2026-04-26 17:04 25.78983 -81.34935 38990 ft 480 kts 168°
2026-04-26 17:05 25.72586 -81.32795 38985 ft 479 kts 168°
2026-04-26 17:05 25.66212 -81.30665 38986 ft 478 kts 168°
2026-04-26 17:06 25.59872 -81.28549 38983 ft 478 kts 168°
2026-04-26 17:06 25.53555 -81.26443 38985 ft 477 kts 168°
2026-04-26 17:07 25.47196 -81.24325 38981 ft 477 kts 168°
2026-04-26 17:07 25.40830 -81.22207 38982 ft 477 kts 168°
2026-04-26 17:08 25.34470 -81.20093 38983 ft 477 kts 168°
2026-04-26 17:08 25.28106 -81.17980 38982 ft 477 kts 168°
2026-04-26 17:09 25.22815 -81.16225 38985 ft 477 kts 169°
2026-04-26 17:09 25.15379 -81.13761 38996 ft 478 kts 169°
2026-04-26 17:10 25.09006 -81.11652 38979 ft 478 kts 169°
2026-04-26 17:10 25.02637 -81.09545 38991 ft 478 kts 169°
2026-04-26 17:11 24.96311 -81.07456 38988 ft 478 kts 169°
2026-04-26 17:11 24.89943 -81.05354 38988 ft 477 kts 169°
2026-04-26 17:12 24.80370 -81.02263 38988 ft 474 kts 173°
2026-04-26 17:13 24.73916 -81.01191 38986 ft 464 kts 184°
2026-04-26 17:13 24.70749 -81.01114 38985 ft 459 kts 189°
2026-04-26 17:14 24.61226 -81.01485 38720 ft 454 kts 189°
2026-04-26 17:14 24.54915 -81.01705 38105 ft 455 kts 188°
2026-04-26 17:14 24.51720 -81.01711 37987 ft 462 kts 187°
2026-04-26 17:15 24.42097 -81.01557 37977 ft 462 kts 187°
2026-04-26 17:16 24.35661 -81.01489 37980 ft 462 kts 187°
2026-04-26 17:16 24.29241 -81.01435 37974 ft 461 kts 187°
2026-04-26 17:17 24.22824 -81.01382 37978 ft 461 kts 187°
2026-04-26 17:17 24.16399 -81.01328 37980 ft 461 kts 188°
2026-04-26 17:18 24.09987 -81.01275 37981 ft 461 kts 188°
2026-04-26 17:18 24.06838 -81.01579 37980 ft 446 kts 201°
2026-04-26 17:18 24.03903 -81.02511 37974 ft 437 kts 207°
2026-04-26 17:19 23.95274 -81.05663 37975 ft 437 kts 207°
2026-04-26 17:19 23.89489 -81.07762 37979 ft 437 kts 207°
2026-04-26 17:20 23.85655 -81.09152 37985 ft 437 kts 207°
2026-04-26 17:20 23.77925 -81.11950 37979 ft 437 kts 207°
2026-04-26 17:21 23.72180 -81.14027 37977 ft 437 kts 207°
2026-04-26 17:21 23.66396 -81.16116 37979 ft 437 kts 207°
2026-04-26 17:22 23.63509 -81.17158 37978 ft 437 kts 207°